Starlink 11705

operational
NORAD ID: 63758 Int'l Des: 2025-089 Owner: SPXS Country: US Constellation: starlink
LEOCIRCULAR

关于 Starlink 11705

正在加载描述...

实时位置

正在加载3D地球...

即将过境

高度历史

Altitude vs Time

uPlot chart will show altitude changes over time

两行轨道根数

1 63758U 25089H 25352.55762743 .00183474 00000-0 13983-2 0 9992
2 63758 43.0007 61.4499 0002071 272.4935 87.5696 15.70903182 37322
Epoch: Dec 18, 2025 • Age: 18 hours

当前状态

高度 355.6 km
速度 7.70 km/s
星下点 21.53°N, 123.93°W
发射日期 Apr 29, 2025
运行时间 0.6 years
类型 internet

技术详情

分类 Payload
质量 960.00 kg
干质量 910.00 kg
总质量 960.00 kg
长度 0.30 m
直径 4.10 m
跨度 29.00 m
形状 Box + pan
制造商 SPXS
平台类型 Starlink V2MD
阶段状态 In Orbit
所有者/国家 SPXS/US

大型星座

Loading constellations...